Omaha, NE

6:12 PM CST on December 22, 2014 (GMT -0600)
CarterLake.org | Change Station
CLOSE
Current Station
Personal Weather Station
Location: Carter Lake, IA
Elevation: 980 ft
Nearby Weather Stations

Elev 980 ft 41.29 °N, 95.92 °W | Updated 1 second ago

Rain
Rain
40.8 °F
Feels Like 41 °F
N
2.6
Wind Variable Wind from NW
Gusts 5.8 mph

Today
High -- | Low -- °F
--% Chance of Precip.
Yesterday
High -- | Low -- °F
Precip. -- in
7:46 AM 4:58 PM
New Moon, 1% visible
Pressure 29.46 in
Visibility 4.0 miles
Clouds Mostly Cloudy 2400 ft
Overcast 2900 ft
Windchill 41 °F
Dew Point 39 °F
Humidity 94%
Rainfall 0.51 in
Snow Depth Not available.
UV 0 out of 12
Pollen .10 out of 12
Air Quality Not available.
Flu Activity Not available.
METAR KOMA 222352Z 30008KT 4SM -RA BR BKN024 OVC029 06/04 A2944 RMK AO2 SLP974 P0004 60025 T00560044 10061 20056 53010

More Conditions Fewer Conditions

Pressure 29.46 in
Visibility 4.0 miles
Clouds Mostly Cloudy 2400 ft
Overcast 2900 ft
Windchill 41 °F
Dew Point 39 °F
Humidity 94%
Rainfall 0.51 in
Snow Depth Not available.
UV 0 out of 12
Pollen .10 out of 12
Air Quality Not available.
Flu Activity Not available.
METAR KOMA 222352Z 30008KT 4SM -RA BR BKN024 OVC029 06/04 A2944 RMK AO2 SLP974 P0004 60025 T00560044 10061 20056 53010

More Conditions Fewer Conditions

10-Day Weather Forecast

Almanac

Astronomy

Dec. 22, 2014 Rise Set
Actual Time
Civil Twilight
Nautical Twilight
Astronomical Twilight
Moon
Length of Visible Light
Length of Day
Tomorrow will be .
, % of the Moon is Illuminated

Today's Extremes

State Highs State Lows

Community

WunderPhotos

Upload Photos

1,779,736 photos uploaded!

WunderBlogs® & News

Nearby

Air Quality

  Air Quality AQ Index Pollutant
Not available.

Snow Depth

Station Depth Elevation

Earthquake Activity

City Distance Mag. Time & Date
Minimum magnitude displayed is 2.5.

Coastal Water Temperatures

Place Temperature

Nearby Weather Stations